Retour au catalogue

IRIDIUM 29

ActifCommunicationsPO
NORAD 24944·PAYLOAD·🇺🇸 United States

Lancé Sep 14, 1997 depuis Baikonur Cosmodrome

Loading…

Prochains Passages (prochaines 24 heures)

TLE

FraisSource: Space-Track

Époque: Sep 14, 2026, 14:20 UTC

1 24944U 97051A   26257.59779220  .00000217  00000-0  66881-4 0  9991
2 24944  86.3960 313.1241 0002046  95.0780 265.0651 14.36846188518517

Suivez IRIDIUM 29 en temps réel avec AllMySat

Download on the App Store